This is the latest recevied weather packets stored in our database for station/object KO4ZGL-13. If no packets are shown the sender has not sent any weather packets the latest 10 day(s).
| Time | Temp. | Humidity | Pressure | Rain* | Wind** | Luminosity | Snow |
|---|---|---|---|---|---|---|---|
| 1787705349 | 26.67° C | 93% | 1017.2 hPa | 0 mm | - | 0 W/m² | - |
| 1787705049 | 26.67° C | 93% | 1017.2 hPa | 0 mm | - | 0 W/m² | - |
| 1787704745 | 27.22° C | 93% | 1016.9 hPa | 0 mm | - | 0 W/m² | - |
| 1787704440 | 27.22° C | 92% | 1016.8 hPa | 0 mm | - | 0 W/m² | - |
| 1787704135 | 27.22° C | 92% | 1017 hPa | 0 mm | - | 0 W/m² | - |
| 1787703834 | 27.22° C | 91% | 1016.8 hPa | 0 mm | - | 0 W/m² | - |
| 1787703530 | 27.22° C | 91% | 1016.8 hPa | 0 mm | - | 0 W/m² | - |
| 1787703229 | 27.78° C | 90% | 1017 hPa | 0 mm | - | 0 W/m² | - |
| 1787702925 | 27.78° C | 90% | 1017 hPa | 0 mm | - | 0 W/m² | - |
| 1787702621 | 27.78° C | 89% | 1016.8 hPa | 0 mm | - | 0 W/m² | - |
| 1787702315 | 27.78° C | 89% | 1016.9 hPa | 0 mm | - | 0 W/m² | - |
| 1787702010 | 27.78° C | 88% | 1016.9 hPa | 0 mm | - | 3 W/m² | - |
| 1787701706 | 28.33° C | 88% | 1017.1 hPa | 0 mm | - | 4 W/m² | - |
| 1787701401 | 28.33° C | 87% | 1016.8 hPa | 0 mm | - | 7 W/m² | - |
| 1787701096 | 28.33° C | 87% | 1016.8 hPa | 0 mm | - | 9 W/m² | - |
| 1787700792 | 28.33° C | 86% | 1016.8 hPa | 0 mm | - | 12 W/m² | - |
| 1787700488 | 28.89° C | 86% | 1016.9 hPa | 0 mm | - | 13 W/m² | - |
| 1787700184 | 28.89° C | 86% | 1016.5 hPa | 0 mm | - | 17 W/m² | - |
| 1787699881 | 28.89° C | 85% | 1016.6 hPa | 0 mm | - | 20 W/m² | - |
| 1787699575 | 28.89° C | 85% | 1016.6 hPa | 0 mm | - | 26 W/m² | - |
| 1787699271 | 28.89° C | 84% | 1016.7 hPa | 0 mm | - | 30 W/m² | - |
| 1787698967 | 29.44° C | 83% | 1016.6 hPa | 0 mm | - | 34 W/m² | - |
| 1787698667 | 29.44° C | 82% | 1016.6 hPa | 0 mm | - | 39 W/m² | - |
| 1787698363 | 29.44° C | 82% | 1016.8 hPa | 0 mm | - | 43 W/m² | - |
| 1787698059 | 29.44° C | 81% | 1016.8 hPa | 0 mm | - | 58 W/m² | - |
* Rain latest hour (hover to see other rain measurements)
** Current wind speed in m/s (hover to see current wind gust speed)